Regional Weather Roundup
Issued by NWS

Home | Current Version | Previous Version | Text Only | Print | Product List | Glossary On
Versions: 1 2 3 4 5 6 7 8 9 10 11 12 13 14 15 16 17 18 19 20 21 22 23 24 25 26 27 28 29 30 31 32 33 34 35 36 37 38 39 40 41 42 43 44 45 46 47 48 49 50
000
ASUS43 KLMK 251610
RWRKY
KENTUCKY REGIONAL WEATHER ROUNDUP
NATIONAL WEATHER SERVICE LOUISVILLE KY
1200 PM EDT TUE JUL 25 2017

NOTE "FAIR" INDICATES FEW OR NO CLOUDS BELOW 12,000 FEET
WITH NO SIGNIFICANT WEATHER AND/OR OBSTRUCTIONS TO VISIBILITY.

KYZ001>023-026-027-061>063-070>075-251700-
WESTERN AND SOUTH CENTRAL KENTUCKY

CITY           SKY/WX    TMP DP  RH WIND       PRES   REMARKS
PADUCAH        MOSUNNY   88  75  65 CALM      30.07S HX  97
HENDERSON      NOT AVBL
OWENSBORO      SUNNY     82  70  66 NE6       30.12S
HOPKINSVILLE   MOSUNNY   87  75  68 CALM      30.09F HX  97
BOWLING GREEN  SUNNY     86  75  69 E5        30.12S HX  95
GLASGOW        MOSUNNY   84  72  67 N5        30.13S
$$

KYZ024-025-028>034-038-045-046-053-251700-
NORTH CENTRAL KENTUCKY

CITY           SKY/WX    TMP DP  RH WIND       PRES   REMARKS
LOUISVILLE/SDF MOSUNNY   81  64  56 E7        30.15F
LOUISVILLE/LOU SUNNY     80  66  62 VRB5      30.15F
FORT KNOX      SUNNY     78  66  67 E7        30.14S
$$

KYZ035>037-039>044-047>052-055>060-089>105-251700-
NORTHEAST KENTUCKY

CITY           SKY/WX    TMP DP  RH WIND       PRES   REMARKS
LEXINGTON      SUNNY     79  63  57 NE8       30.18R
COVINGTON      MOSUNNY   75  60  59 NE10      30.19F
FRANKFORT      SUNNY     78  61  55 NE7       30.17R
$$

KYZ054-064>069-076>088-106>120-251700-
SOUTHEAST KENTUCKY

CITY           SKY/WX    TMP DP  RH WIND       PRES   REMARKS
JACKSON        MOSUNNY   77  67  71 CALM      30.18F
LONDON         CLOUDY    77  68  73 CALM      30.16S
SOMERSET       MOSUNNY   77  68  73 NE5       30.16S
MIDDLESBORO    PTSUNNY   82  72  71 CALM      30.14F
MONTICELLO     SUNNY     82  74  76 VRB5      30.16S
$$





USA.gov is the U.S. government's official web portal to all federal, state and local government web resources and services.